Location: New Plymouth
(39.0670°S, 174.0830°E)
Time: 17:03:49
(UTC+13:00)

Meteor 2-10 Rocket - Pass Details

Date: 24 January 2019
Orbit: 733 x 886 km, 81.2° (Epoch: 23 October)

Event Time Altitude Azimuth Distance (km) Brightness Sun altitude
Rises 21:32:31 0° 345° (NNW) 3,169 6.5 -8.6°
Reaches altitude 10° 21:34:49 10° 342° (NNW) 2,266 5.8 -9.0°
Maximum altitude 21:39:52 66° 259° (W) 843 4.0 -9.8°
Drops below altitude 10° 21:45:11 10° 176° (S) 2,377 6.5 -10.7°
Sets 21:47:39 0° 173° (S) 3,338 7.2 -11.0°
